Tracking 22441 objects as of 1-Mar-2021
HD Live streaming from Space Station
objects crossing your sky now

COSMOS 249 DEB

Track COSMOS 249 DEB now!
10-day predictions


NORAD ID: 14410
Int'l Code: 1968-091CL
Perigee: 646.9 km
Apogee: 1,355.6 km
Inclination: 62.2 °
Period: 105.0 minutes
Semi major axis: 7372 km
RCS: 0.0157 m2 (small)
Launch date: October 20, 1968
Source: Commonwealth of Independent States (former USSR) (CIS)
Launch site: TYURATAM MISSILE AND SPACE COMPLEX (TTMTR)

Note: This is SATELLITE DEBRIS
aabbcc
Your satellite tracking list
Your tracking list is empty




NASA's NSSDC Master Catalog

Two Line Element Set (TLE):
1 14410U 68091CL  21060.40643399  .00000817  00000-0  45148-3 0  9992
2 14410  62.2199  44.1415 0480658 137.0131  16.0473 13.71530045835991
Source of the keplerian elements: AFSPC